| time (UTC) | temp C | wind direction | speed KPH | gust KPH | rain 1hr cm | rain 24hr cm | rain mn cm | humidity % | barometer mb |
| 20260508121921 | 16 | 355 | 1.6 | 6.4 | 0.00 | 0.00 | 0.00 | 59 | 1017.5 |
| 20260508121359 | 15 | 129 | 1.6 | 6.4 | 0.00 | 0.00 | 0.00 | 62 | 1017.4 |
| 20260508120402 | 14 | 152 | 0.0 | 0.0 | 0.00 | 0.00 | 0.00 | 68 | 1017.3 |
| 20260508115402 | 13 | 245 | 0.0 | 1.6 | 0.00 | 0.00 | 0.00 | 71 | 1017.3 |
| 20260508114405 | 13 | 218 | 3.2 | 8.0 | 0.00 | 0.00 | 0.00 | 68 | 1017.5 |
| 20260508113407 | 13 | 208 | 0.0 | 9.7 | 0.00 | 0.00 | 0.00 | 67 | 1017.4 |
| 20260508112405 | 14 | 164 | 3.2 | 12.9 | 0.00 | 0.00 | 0.00 | 63 | 1017.3 |
| 20260508111411 | 14 | 112 | 0.0 | 4.8 | 0.00 | 0.00 | 0.00 | 64 | 1017.3 |
| 20260508110413 | 13 | 201 | 3.2 | 11.3 | 0.00 | 0.00 | 0.00 | 63 | 1017.1 |
| 20260508105417 | 14 | 155 | 1.6 | 6.4 | 0.00 | 0.00 | 0.00 | 65 | 1017.3 |
| 20260508104420 | 14 | 219 | 3.2 | 9.7 | 0.00 | 0.00 | 0.00 | 62 | 1017.4 |
| 20260508103401 | 15 | 121 | 3.2 | 9.7 | 0.00 | 0.00 | 0.00 | 61 | 1017.4 |
| 20260508102900 | 15 | 102 | 1.6 | 9.7 | 0.00 | 0.00 | 0.00 | 61 | 1017.2 |
| 20260508101904 | 15 | 165 | 1.6 | 9.7 | 0.00 | 0.00 | 0.00 | 58 | 1017.4 |
| 20260508100905 | 16 | 131 | 1.6 | 9.7 | 0.00 | 0.00 | 0.00 | 60 | 1017.5 |
| 20260508095907 | 16 | 162 | 3.2 | 8.0 | 0.00 | 0.00 | 0.00 | 60 | 1017.4 |
| 20260508094911 | 15 | 105 | 0.0 | 6.4 | 0.00 | 0.00 | 0.00 | 60 | 1017.4 |
| 20260508093911 | 15 | 169 | 1.6 | 6.4 | 0.00 | 0.00 | 0.00 | 61 | 1017.3 |
| 20260508093410 | 15 | 159 | 0.0 | 4.8 | 0.00 | 0.00 | 0.00 | 61 | 1017.4 |
| 20260508092414 | 15 | 33 | 0.0 | 6.4 | 0.00 | 0.00 | 0.00 | 65 | 1017.4 |
| 20260508091413 | 14 | 151 | 0.0 | 4.8 | 0.00 | 0.00 | 0.00 | 65 | 1017.3 |
| 20260508090417 | 14 | 141 | 0.0 | 6.4 | 0.00 | 0.00 | 0.00 | 67 | 1017.3 |
| 20260508085402 | 13 | 181 | 0.0 | 3.2 | 0.00 | 0.00 | 0.00 | 68 | 1017.1 |
| 20260508084405 | 12 | 168 | 0.0 | 1.6 | 0.00 | 0.00 | 0.00 | 71 | 1017.2 |
| 20260508083410 | 12 | 168 | 0.0 | 4.8 | 0.00 | 0.00 | 0.00 | 74 | 1017.1 |
| 20260508082908 | 12 | 168 | 0.0 | 4.8 | 0.00 | 0.00 | 0.00 | 73 | 1017.0 |
| 20260508081910 | 11 | 168 | 0.0 | 1.6 | 0.00 | 0.00 | 0.00 | 74 | 1017.3 |
| 20260508080917 | 11 | 168 | 0.0 | 3.2 | 0.00 | 0.00 | 0.00 | 75 | 1017.3 |
| 20260508075903 | 11 | 168 | 0.0 | 1.6 | 0.00 | 0.00 | 0.00 | 77 | 1017.1 |
| 20260508074904 | 10 | 168 | 0.0 | 1.6 | 0.00 | 0.00 | 0.00 | 78 | 1017.1 |
| 20260508074125 | 10 | 168 | 0.0 | 0.0 | 0.00 | 0.00 | 0.00 | 78 | 1016.9 |
| 20260508072916 | 10 | 168 | 0.0 | 1.6 | 0.00 | 0.00 | 0.00 | 76 | 1016.8 |
| 20260508071922 | 10 | 168 | 0.0 | 1.6 | 0.00 | 0.00 | 0.00 | 78 | 1016.7 |
| 20260508070918 | 10 | 168 | 0.0 | 1.6 | 0.00 | 0.00 | 0.00 | 81 | 1016.5 |
| 20260508065905 | 10 | 168 | 0.0 | 1.6 | 0.00 | 0.00 | 0.00 | 80 | 1016.7 |
| 20260508064906 | 10 | 168 | 0.0 | 0.0 | 0.00 | 0.00 | 0.00 | 81 | 1016.5 |
| 20260508063913 | 9 | 168 | 0.0 | 1.6 | 0.00 | 0.00 | 0.00 | 82 | 1016.3 |
| 20260508062924 | 8 | 168 | 0.0 | 0.0 | 0.00 | 0.00 | 0.00 | 86 | 1016.4 |
| 20260508061918 | 8 | 168 | 0.0 | 1.6 | 0.00 | 0.00 | 0.00 | 90 | 1016.2 |
| 20260508061401 | 8 | 168 | 0.0 | 0.0 | 0.00 | 0.00 | 0.00 | 92 | 1016.1 |
| 20260508060406 | 7 | 168 | 0.0 | 0.0 | 0.00 | 0.00 | 0.00 | 96 | 1016.3 |
| 20260508055414 | 7 | 168 | 0.0 | 0.0 | 0.00 | 0.00 | 0.00 | 95 | 1016.1 |
| 20260508054414 | 6 | 168 | 0.0 | 0.0 | 0.00 | 0.00 | 0.00 | 95 | 1015.9 |
| 20260508053422 | 6 | 168 | 0.0 | 0.0 | 0.00 | 0.00 | 0.00 | 95 | 1016.1 |
| 20260508052918 | 6 | 168 | 0.0 | 0.0 | 0.00 | 0.00 | 0.00 | 95 | 1016.2 |
| 20260508052415 | 5 | 168 | 0.0 | 0.0 | 0.00 | 0.00 | 0.00 | 95 | 1016.1 |
| 20260508051418 | 5 | 168 | 0.0 | 0.0 | 0.00 | 0.00 | 0.00 | 95 | 1016.0 |
| 20260508050404 | 5 | 168 | 0.0 | 0.0 | 0.00 | 0.00 | 0.00 | 95 | 1015.9 |
| 20260508045403 | 5 | 168 | 0.0 | 0.0 | 0.00 | 0.00 | 0.00 | 95 | 1015.8 |
| 20260508044407 | 5 | 168 | 0.0 | 0.0 | 0.00 | 0.00 | 0.00 | 95 | 1015.7 |
| 20260508043410 | 4 | 168 | 0.0 | 0.0 | 0.00 | 0.00 | 0.00 | 95 | 1015.8 |
| 20260508042910 | 4 | 168 | 0.0 | 0.0 | 0.00 | 0.00 | 0.00 | 94 | 1015.9 |
| 20260508042409 | 4 | 168 | 0.0 | 0.0 | 0.00 | 0.00 | 0.00 | 94 | 1015.8 |
| 20260508041413 | 3 | 168 | 0.0 | 0.0 | 0.00 | 0.00 | 0.00 | 93 | 1015.8 |
| 20260508040413 | 3 | 168 | 0.0 | 0.0 | 0.00 | 0.00 | 0.00 | 92 | 1015.8 |
| 20260508035911 | 3 | 168 | 0.0 | 0.0 | 0.00 | 0.00 | 0.00 | 93 | 1015.8 |
| 20260508034913 | 3 | 168 | 0.0 | 0.0 | 0.00 | 0.00 | 0.00 | 92 | 1015.7 |
| 20260508033916 | 3 | 168 | 0.0 | 0.0 | 0.00 | 0.00 | 0.00 | 90 | 1015.6 |
| 20260508033402 | 3 | 168 | 0.0 | 0.0 | 0.00 | 0.00 | 0.00 | 90 | 1015.7 |
| 20260508032408 | 4 | 168 | 0.0 | 0.0 | 0.00 | 0.00 | 0.00 | 89 | 1015.7 |
| 20260508031412 | 4 | 168 | 0.0 | 0.0 | 0.00 | 0.00 | 0.00 | 89 | 1015.7 |
| 20260508030417 | 5 | 168 | 0.0 | 0.0 | 0.00 | 0.00 | 0.00 | 88 | 1015.6 |
| 20260508025420 | 5 | 168 | 0.0 | 0.0 | 0.00 | 0.00 | 0.00 | 88 | 1015.5 |
| 20260508024357 | 5 | 168 | 0.0 | 0.0 | 0.00 | 0.00 | 0.00 | 87 | 1015.6 |
| 20260508023401 | 5 | 168 | 0.0 | 0.0 | 0.00 | 0.00 | 0.00 | 87 | 1015.6 |
| 20260508022902 | 5 | 168 | 0.0 | 0.0 | 0.00 | 0.00 | 0.00 | 87 | 1015.6 |
| 20260508022401 | 6 | 168 | 0.0 | 0.0 | 0.00 | 0.00 | 0.00 | 86 | 1015.5 |
| 20260508021409 | 6 | 168 | 0.0 | 0.0 | 0.00 | 0.00 | 0.00 | 86 | 1015.6 |
| 20260508020404 | 6 | 168 | 0.0 | 0.0 | 0.00 | 0.00 | 0.00 | 85 | 1015.4 |
| 20260508015409 | 7 | 168 | 0.0 | 0.0 | 0.00 | 0.00 | 0.00 | 83 | 1015.3 |
| 20260508014408 | 7 | 168 | 0.0 | 0.0 | 0.00 | 0.00 | 0.00 | 83 | 1015.4 |
| 20260508013409 | 7 | 168 | 0.0 | 0.0 | 0.00 | 0.00 | 0.00 | 81 | 1015.4 |
| 20260508012909 | 7 | 168 | 0.0 | 0.0 | 0.00 | 0.00 | 0.00 | 81 | 1015.4 |
| 20260508012408 | 8 | 168 | 0.0 | 0.0 | 0.00 | 0.00 | 0.00 | 81 | 1015.5 |
| 20260508011410 | 8 | 168 | 0.0 | 0.0 | 0.00 | 0.00 | 0.00 | 80 | 1015.3 |
| 20260508005918 | 8 | 168 | 0.0 | 0.0 | 0.00 | 0.00 | 0.00 | 79 | 1015.4 |
| 20260508004859 | 9 | 168 | 0.0 | 0.0 | 0.00 | 0.00 | 0.00 | 78 | 1015.4 |
| 20260508003908 | 9 | 168 | 0.0 | 0.0 | 0.00 | 0.00 | 0.00 | 76 | 1015.5 |
| 20260508002908 | 10 | 168 | 0.0 | 1.6 | 0.00 | 0.00 | 0.00 | 76 | 1015.6 |
| 20260508001913 | 10 | 168 | 0.0 | 1.6 | 0.00 | 0.00 | 0.00 | 76 | 1015.7 |
| 20260508000912 | 10 | 168 | 0.0 | 1.6 | 0.00 | 0.00 | 0.00 | 75 | 1015.7 |
| 20260507235401 | 10 | 168 | 0.0 | 1.6 | 0.00 | 0.00 | 0.00 | 71 | 1015.6 |
| 20260507234406 | 10 | 168 | 0.0 | 4.8 | 0.00 | 0.00 | 0.00 | 70 | 1015.5 |
| 20260507233414 | 10 | 150 | 0.0 | 4.8 | 0.00 | 0.00 | 0.00 | 70 | 1015.5 |
| 20260507232417 | 10 | 184 | 0.0 | 3.2 | 0.00 | 0.00 | 0.00 | 70 | 1015.7 |
| 20260507231401 | 10 | 218 | 0.0 | 3.2 | 0.00 | 0.00 | 0.00 | 69 | 1015.6 |
| 20260507225916 | 11 | 160 | 0.0 | 4.8 | 0.00 | 0.00 | 0.00 | 69 | 1015.7 |
| 20260507224906 | 11 | 199 | 0.0 | 3.2 | 0.00 | 0.00 | 0.00 | 69 | 1015.6 |
| 20260507223909 | 11 | 163 | 0.0 | 3.2 | 0.00 | 0.00 | 0.00 | 68 | 1015.6 |
| 20260507223407 | 11 | 138 | 0.0 | 3.2 | 0.00 | 0.00 | 0.00 | 68 | 1015.5 |
| 20260507222903 | 11 | 57 | 0.0 | 3.2 | 0.00 | 0.00 | 0.00 | 68 | 1015.5 |
| 20260507221904 | 11 | 114 | 0.0 | 3.2 | 0.00 | 0.00 | 0.00 | 68 | 1015.6 |
| 20260507220908 | 11 | 135 | 1.6 | 8.0 | 0.00 | 0.00 | 0.00 | 67 | 1015.7 |
| 20260507215911 | 11 | 201 | 0.0 | 3.2 | 0.00 | 0.00 | 0.00 | 67 | 1015.7 |
| 20260507214917 | 11 | 235 | 0.0 | 6.4 | 0.00 | 0.00 | 0.00 | 67 | 1015.6 |
| 20260507213919 | 11 | 106 | 1.6 | 6.4 | 0.00 | 0.00 | 0.00 | 67 | 1015.6 |
| 20260507212919 | 11 | 184 | 1.6 | 9.7 | 0.00 | 0.00 | 0.00 | 67 | 1015.7 |
| 20260507211917 | 11 | 158 | 1.6 | 8.0 | 0.00 | 0.00 | 0.00 | 67 | 1015.5 |
| 20260507210920 | 11 | 186 | 3.2 | 6.4 | 0.00 | 0.00 | 0.00 | 66 | 1015.5 |
| 20260507205903 | 11 | 172 | 1.6 | 8.0 | 0.00 | 0.00 | 0.00 | 65 | 1015.4 |
| 20260507204410 | 12 | 164 | 0.0 | 6.4 | 0.00 | 0.00 | 0.00 | 64 | 1015.5 |
| 20260507203413 | 12 | 154 | 0.0 | 9.7 | 0.00 | 0.00 | 0.00 | 62 | 1015.3 |
| 20260507202409 | 12 | 119 | 0.0 | 8.0 | 0.00 | 0.00 | 0.00 | 60 | 1015.2 |
| 20260507201416 | 12 | 108 | 0.0 | 6.4 | 0.00 | 0.00 | 0.00 | 60 | 1015.2 |
| 20260507200421 | 12 | 195 | 3.2 | 12.9 | 0.00 | 0.00 | 0.00 | 59 | 1015.2 |
| 20260507195906 | 12 | 101 | 1.6 | 6.4 | 0.00 | 0.00 | 0.00 | 58 | 1015.1 |
| 20260507194917 | 12 | 141 | 0.0 | 3.2 | 0.00 | 0.00 | 0.00 | 58 | 1015.0 |
| 20260507193919 | 12 | 197 | 1.6 | 8.0 | 0.00 | 0.00 | 0.00 | 58 | 1014.8 |
| 20260507192917 | 12 | 154 | 0.0 | 11.3 | 0.00 | 0.00 | 0.00 | 58 | 1014.6 |
| 20260507191903 | 12 | 202 | 0.0 | 8.0 | 0.00 | 0.00 | 0.00 | 58 | 1014.6 |
| 20260507190906 | 12 | 137 | 1.6 | 12.9 | 0.00 | 0.00 | 0.00 | 57 | 1014.5 |
| 20260507185913 | 12 | 158 | 0.0 | 4.8 | 0.00 | 0.00 | 0.00 | 58 | 1014.5 |
| 20260507184914 | 12 | 177 | 1.6 | 9.7 | 0.00 | 0.00 | 0.00 | 57 | 1014.4 |
| 20260507183918 | 12 | 17 | 0.0 | 11.3 | 0.00 | 0.00 | 0.00 | 57 | 1014.3 |
| 20260507182919 | 13 | 211 | 1.6 | 8.0 | 0.00 | 0.00 | 0.00 | 56 | 1014.3 |
| 20260507182403 | 13 | 155 | 1.6 | 12.9 | 0.00 | 0.00 | 0.00 | 56 | 1014.4 |
| 20260507181401 | 13 | 229 | 0.0 | 8.0 | 0.00 | 0.00 | 0.00 | 55 | 1014.3 |
| 20260507180410 | 13 | 189 | 3.2 | 16.1 | 0.00 | 0.00 | 0.00 | 55 | 1014.2 |
| 20260507175410 | 13 | 217 | 1.6 | 8.0 | 0.00 | 0.00 | 0.00 | 54 | 1014.1 |
| 20260507174413 | 13 | 216 | 1.6 | 9.7 | 0.00 | 0.00 | 0.00 | 54 | 1014.1 |
| 20260507173415 | 13 | 161 | 3.2 | 11.3 | 0.00 | 0.00 | 0.00 | 53 | 1014.2 |
| 20260507172418 | 13 | 158 | 1.6 | 9.7 | 0.00 | 0.00 | 0.00 | 53 | 1014.3 |
| 20260507171406 | 13 | 196 | 0.0 | 8.0 | 0.00 | 0.00 | 0.00 | 53 | 1014.3 |
| 20260507170409 | 13 | 115 | 3.2 | 11.3 | 0.00 | 0.00 | 0.00 | 53 | 1014.3 |
| 20260507165419 | 13 | 126 | 1.6 | 11.3 | 0.00 | 0.00 | 0.00 | 52 | 1014.6 |
| 20260507163411 | 13 | 153 | 0.0 | 8.0 | 0.00 | 0.00 | 0.00 | 55 | 1014.5 |
| 20260507162416 | 12 | 199 | 0.0 | 8.0 | 0.00 | 0.00 | 0.00 | 57 | 1014.5 |
| 20260507161417 | 12 | 153 | 0.0 | 9.7 | 0.00 | 0.00 | 0.00 | 56 | 1014.6 |
| 20260507160419 | 12 | 154 | 0.0 | 6.4 | 0.00 | 0.00 | 0.00 | 57 | 1014.6 |
| 20260507155900 | 12 | 168 | 0.0 | 8.0 | 0.00 | 0.00 | 0.00 | 57 | 1014.7 |
| 20260507154902 | 12 | 166 | 1.6 | 9.7 | 0.00 | 0.00 | 0.00 | 57 | 1014.7 |
| 20260507153903 | 12 | 131 | 1.6 | 8.0 | 0.00 | 0.00 | 0.00 | 58 | 1014.8 |
| 20260507152913 | 12 | 141 | 1.6 | 8.0 | 0.00 | 0.00 | 0.00 | 58 | 1014.8 |
| 20260507151919 | 12 | 177 | 1.6 | 9.7 | 0.00 | 0.00 | 0.00 | 58 | 1014.8 |
| 20260507151402 | 12 | 172 | 0.0 | 9.7 | 0.00 | 0.00 | 0.00 | 58 | 1014.8 |
| 20260507150409 | 12 | 226 | 1.6 | 6.4 | 0.00 | 0.00 | 0.00 | 57 | 1014.9 |
| 20260507145416 | 12 | 177 | 0.0 | 8.0 | 0.00 | 0.00 | 0.00 | 57 | 1014.9 |
| 20260507144412 | 12 | 211 | 0.0 | 8.0 | 0.00 | 0.00 | 0.00 | 57 | 1014.9 |
| 20260507143420 | 12 | 145 | 1.6 | 9.7 | 0.00 | 0.00 | 0.00 | 57 | 1015.1 |
| 20260507142421 | 13 | 207 | 0.0 | 8.0 | 0.00 | 0.00 | 0.00 | 56 | 1015.2 |
| 20260507141427 | 13 | 189 | 0.0 | 8.0 | 0.00 | 0.00 | 0.00 | 57 | 1015.2 |
| 20260507140406 | 13 | 178 | 1.6 | 6.4 | 0.00 | 0.00 | 0.00 | 57 | 1015.3 |
| 20260507135407 | 13 | 164 | 0.0 | 12.9 | 0.00 | 0.00 | 0.00 | 57 | 1015.5 |
| 20260507134410 | 13 | 109 | 0.0 | 8.0 | 0.00 | 0.00 | 0.00 | 57 | 1015.6 |
| 20260507132902 | 13 | 183 | 1.6 | 6.4 | 0.00 | 0.00 | 0.00 | 59 | 1015.6 |
| 20260507131906 | 13 | 127 | 0.0 | 6.4 | 0.00 | 0.00 | 0.00 | 59 | 1015.6 |
| 20260507130907 | 12 | 172 | 1.6 | 6.4 | 0.00 | 0.00 | 0.00 | 59 | 1015.6 |
| 20260507125910 | 12 | 160 | 1.6 | 8.0 | 0.00 | 0.00 | 0.00 | 60 | 1015.8 |
| 20260507124911 | 12 | 179 | 1.6 | 8.0 | 0.00 | 0.00 | 0.00 | 62 | 1015.8 |
| 20260507123915 | 12 | 148 | 1.6 | 8.0 | 0.00 | 0.00 | 0.00 | 62 | 1015.9 |
| 20260507122921 | 12 | 241 | 1.6 | 8.0 | 0.00 | 0.00 | 0.00 | 63 | 1016.0 |